#datetime,building,power
2024-02-17T00:00:00,axn,29.08
2024-02-17T00:01:00,axn,29.15
2024-02-17T00:02:00,axn,29.01
2024-02-17T00:03:00,axn,29.03
2024-02-17T00:04:00,axn,28.36
2024-02-17T00:05:00,axn,28.35
2024-02-17T00:06:00,axn,28.46
2024-02-17T00:07:00,axn,29.00
2024-02-17T00:08:00,axn,28.91
2024-02-17T00:09:00,axn,29.10
2024-02-17T00:10:00,axn,28.98
2024-02-17T00:11:00,axn,28.96
2024-02-17T00:12:00,axn,28.86
2024-02-17T00:13:00,axn,29.17
2024-02-17T00:14:00,axn,28.75
2024-02-17T00:15:00,axn,28.64
2024-02-17T00:16:00,axn,28.53
2024-02-17T00:17:00,axn,28.98
2024-02-17T00:18:00,axn,29.68
2024-02-17T00:19:00,axn,32.72
2024-02-17T00:20:00,axn,36.96
2024-02-17T00:21:00,axn,37.76
2024-02-17T00:22:00,axn,36.17
2024-02-17T00:23:00,axn,37.88
2024-02-17T00:24:00,axn,36.00
2024-02-17T00:25:00,axn,37.22
2024-02-17T00:26:00,axn,34.23
2024-02-17T00:27:00,axn,34.95
2024-02-17T00:28:00,axn,34.84
2024-02-17T00:29:00,axn,36.47
2024-02-17T00:30:00,axn,34.96
2024-02-17T00:31:00,axn,36.10
2024-02-17T00:32:00,axn,33.80
2024-02-17T00:33:00,axn,34.40
2024-02-17T00:34:00,axn,34.07
2024-02-17T00:35:00,axn,34.51
2024-02-17T00:36:00,axn,33.55
2024-02-17T00:37:00,axn,33.16
2024-02-17T00:38:00,axn,33.09
2024-02-17T00:39:00,axn,33.42
2024-02-17T00:40:00,axn,33.40
2024-02-17T00:41:00,axn,33.83
2024-02-17T00:42:00,axn,34.24
2024-02-17T00:43:00,axn,34.55
2024-02-17T00:44:00,axn,34.29
2024-02-17T00:45:00,axn,33.37
2024-02-17T00:46:00,axn,33.75
2024-02-17T00:47:00,axn,33.93
2024-02-17T00:48:00,axn,35.93
2024-02-17T00:49:00,axn,35.66
2024-02-17T00:50:00,axn,34.36
2024-02-17T00:51:00,axn,36.51
2024-02-17T00:52:00,axn,36.24
2024-02-17T00:53:00,axn,37.09
2024-02-17T00:54:00,axn,36.98
2024-02-17T00:55:00,axn,35.65
2024-02-17T00:56:00,axn,36.10
2024-02-17T00:57:00,axn,30.42
2024-02-17T00:58:00,axn,28.44
2024-02-17T00:59:00,axn,27.95
2024-02-17T01:00:00,axn,27.73
2024-02-17T01:01:00,axn,27.01
2024-02-17T01:02:00,axn,27.31
2024-02-17T01:03:00,axn,27.32
2024-02-17T01:04:00,axn,27.21
2024-02-17T01:05:00,axn,27.68
2024-02-17T01:06:00,axn,27.23
2024-02-17T01:07:00,axn,27.16
2024-02-17T01:08:00,axn,27.34
2024-02-17T01:09:00,axn,27.31
2024-02-17T01:10:00,axn,27.17
2024-02-17T01:11:00,axn,27.41
2024-02-17T01:12:00,axn,27.63
2024-02-17T01:13:00,axn,27.42
2024-02-17T01:14:00,axn,27.64
2024-02-17T01:15:00,axn,27.99
2024-02-17T01:16:00,axn,27.91
2024-02-17T01:17:00,axn,27.91
2024-02-17T01:18:00,axn,27.94
2024-02-17T01:19:00,axn,27.48
2024-02-17T01:20:00,axn,27.37
2024-02-17T01:21:00,axn,27.67
2024-02-17T01:22:00,axn,27.39
2024-02-17T01:23:00,axn,27.41
2024-02-17T01:24:00,axn,27.45
2024-02-17T01:25:00,axn,27.52
2024-02-17T01:26:00,axn,27.33
2024-02-17T01:27:00,axn,27.48
2024-02-17T01:28:00,axn,27.52
2024-02-17T01:29:00,axn,28.17
2024-02-17T01:30:00,axn,27.53
2024-02-17T01:31:00,axn,27.32
2024-02-17T01:32:00,axn,26.90
2024-02-17T01:33:00,axn,26.98
2024-02-17T01:34:00,axn,29.24
2024-02-17T01:35:00,axn,34.10
2024-02-17T01:36:00,axn,37.42
2024-02-17T01:37:00,axn,36.60
2024-02-17T01:38:00,axn,36.74
2024-02-17T01:39:00,axn,36.31
2024-02-17T01:40:00,axn,34.67
2024-02-17T01:41:00,axn,35.27
2024-02-17T01:42:00,axn,35.28
2024-02-17T01:43:00,axn,35.62
2024-02-17T01:44:00,axn,36.32
2024-02-17T01:45:00,axn,35.11
2024-02-17T01:46:00,axn,33.75
2024-02-17T01:47:00,axn,35.86
2024-02-17T01:48:00,axn,34.43
2024-02-17T01:49:00,axn,33.61
2024-02-17T01:50:00,axn,35.57
2024-02-17T01:51:00,axn,35.06
2024-02-17T01:52:00,axn,33.40
2024-02-17T01:53:00,axn,33.94
2024-02-17T01:54:00,axn,34.81
2024-02-17T01:55:00,axn,35.08
2024-02-17T01:56:00,axn,34.15
2024-02-17T01:57:00,axn,34.13
2024-02-17T01:58:00,axn,35.67
2024-02-17T01:59:00,axn,34.15
2024-02-17T02:00:00,axn,35.77
2024-02-17T02:01:00,axn,33.73
2024-02-17T02:02:00,axn,33.66
2024-02-17T02:03:00,axn,33.89
2024-02-17T02:04:00,axn,34.11
2024-02-17T02:05:00,axn,34.62
2024-02-17T02:06:00,axn,34.35
2024-02-17T02:07:00,axn,34.32
2024-02-17T02:08:00,axn,34.57
2024-02-17T02:09:00,axn,34.62
2024-02-17T02:10:00,axn,29.63
2024-02-17T02:11:00,axn,27.69
2024-02-17T02:12:00,axn,27.73
2024-02-17T02:13:00,axn,26.46
2024-02-17T02:14:00,axn,26.18
2024-02-17T02:15:00,axn,26.14
2024-02-17T02:16:00,axn,26.22
2024-02-17T02:17:00,axn,26.21
2024-02-17T02:18:00,axn,26.35
2024-02-17T02:19:00,axn,25.98
2024-02-17T02:20:00,axn,26.06
2024-02-17T02:21:00,axn,26.19
2024-02-17T02:22:00,axn,26.20
2024-02-17T02:23:00,axn,26.38
2024-02-17T02:24:00,axn,25.89
2024-02-17T02:25:00,axn,25.93
2024-02-17T02:26:00,axn,26.09
2024-02-17T02:27:00,axn,26.05
2024-02-17T02:28:00,axn,26.49
2024-02-17T02:29:00,axn,26.21
2024-02-17T02:30:00,axn,26.91
2024-02-17T02:31:00,axn,26.52
2024-02-17T02:32:00,axn,26.20
2024-02-17T02:33:00,axn,26.11
2024-02-17T02:34:00,axn,26.47
2024-02-17T02:35:00,axn,26.28
2024-02-17T02:36:00,axn,26.25
2024-02-17T02:37:00,axn,26.39
2024-02-17T02:38:00,axn,25.97
2024-02-17T02:39:00,axn,26.09
2024-02-17T02:40:00,axn,26.09
2024-02-17T02:41:00,axn,25.98
2024-02-17T02:42:00,axn,26.04
2024-02-17T02:43:00,axn,26.32
2024-02-17T02:44:00,axn,26.29
2024-02-17T02:45:00,axn,26.12
2024-02-17T02:46:00,axn,26.30
2024-02-17T02:47:00,axn,26.23
2024-02-17T02:48:00,axn,26.39
2024-02-17T02:49:00,axn,26.41
2024-02-17T02:50:00,axn,26.35
2024-02-17T02:51:00,axn,32.67
2024-02-17T02:52:00,axn,32.46
2024-02-17T02:53:00,axn,32.28
2024-02-17T02:54:00,axn,26.60
2024-02-17T02:55:00,axn,26.43
2024-02-17T02:56:00,axn,26.32
2024-02-17T02:57:00,axn,26.29
2024-02-17T02:58:00,axn,26.06
2024-02-17T02:59:00,axn,25.80
2024-02-17T03:00:00,axn,26.09
2024-02-17T03:01:00,axn,25.95
2024-02-17T03:02:00,axn,26.01
2024-02-17T03:03:00,axn,26.22
2024-02-17T03:04:00,axn,25.77
2024-02-17T03:05:00,axn,25.87
2024-02-17T03:06:00,axn,25.98
2024-02-17T03:07:00,axn,25.94
2024-02-17T03:08:00,axn,26.13
2024-02-17T03:09:00,axn,25.94
2024-02-17T03:10:00,axn,26.22
2024-02-17T03:11:00,axn,25.91
2024-02-17T03:12:00,axn,25.86
2024-02-17T03:13:00,axn,26.04
2024-02-17T03:14:00,axn,26.01
2024-02-17T03:15:00,axn,26.01
2024-02-17T03:16:00,axn,26.41
2024-02-17T03:17:00,axn,26.04
2024-02-17T03:18:00,axn,26.19
2024-02-17T03:19:00,axn,26.18
2024-02-17T03:20:00,axn,25.96
2024-02-17T03:21:00,axn,26.09
2024-02-17T03:22:00,axn,26.33
2024-02-17T03:23:00,axn,26.08
2024-02-17T03:24:00,axn,25.91
2024-02-17T03:25:00,axn,25.94
2024-02-17T03:26:00,axn,25.52
2024-02-17T03:27:00,axn,25.53
2024-02-17T03:28:00,axn,25.79
2024-02-17T03:29:00,axn,25.76
2024-02-17T03:30:00,axn,26.59
2024-02-17T03:31:00,axn,25.77
2024-02-17T03:32:00,axn,25.73
2024-02-17T03:33:00,axn,25.61
2024-02-17T03:34:00,axn,25.71
2024-02-17T03:35:00,axn,25.77
2024-02-17T03:36:00,axn,25.69
2024-02-17T03:37:00,axn,25.79
2024-02-17T03:38:00,axn,25.65
2024-02-17T03:39:00,axn,25.85
2024-02-17T03:40:00,axn,25.77
2024-02-17T03:41:00,axn,25.60
2024-02-17T03:42:00,axn,25.85
2024-02-17T03:43:00,axn,25.54
2024-02-17T03:44:00,axn,25.49
2024-02-17T03:45:00,axn,25.45
2024-02-17T03:46:00,axn,25.47
2024-02-17T03:47:00,axn,35.92
2024-02-17T03:48:00,axn,36.24
2024-02-17T03:49:00,axn,35.81
2024-02-17T03:50:00,axn,35.55
2024-02-17T03:51:00,axn,25.21
2024-02-17T03:52:00,axn,25.24
2024-02-17T03:53:00,axn,25.33
2024-02-17T03:54:00,axn,25.23
2024-02-17T03:55:00,axn,25.47
2024-02-17T03:56:00,axn,25.12
2024-02-17T03:57:00,axn,25.23
2024-02-17T03:58:00,axn,25.08
2024-02-17T03:59:00,axn,25.63
2024-02-17T04:00:00,axn,25.38
2024-02-17T04:01:00,axn,25.12
2024-02-17T04:02:00,axn,25.93
2024-02-17T04:03:00,axn,25.48
2024-02-17T04:04:00,axn,25.59
2024-02-17T04:05:00,axn,25.43
2024-02-17T04:06:00,axn,25.26
2024-02-17T04:07:00,axn,25.34
2024-02-17T04:08:00,axn,25.45
2024-02-17T04:09:00,axn,28.58
2024-02-17T04:10:00,axn,25.72
2024-02-17T04:11:00,axn,25.94
2024-02-17T04:12:00,axn,25.64
2024-02-17T04:13:00,axn,25.98
2024-02-17T04:14:00,axn,25.85
2024-02-17T04:15:00,axn,25.62
2024-02-17T04:16:00,axn,25.41
2024-02-17T04:17:00,axn,26.24
2024-02-17T04:18:00,axn,26.19
2024-02-17T04:19:00,axn,26.14
2024-02-17T04:20:00,axn,26.29
2024-02-17T04:21:00,axn,26.97
2024-02-17T04:22:00,axn,26.59
2024-02-17T04:23:00,axn,26.43
2024-02-17T04:24:00,axn,26.05
2024-02-17T04:25:00,axn,26.12
2024-02-17T04:26:00,axn,25.89
2024-02-17T04:27:00,axn,25.94
2024-02-17T04:28:00,axn,26.32
2024-02-17T04:29:00,axn,26.32
2024-02-17T04:30:00,axn,26.09
2024-02-17T04:31:00,axn,25.63
2024-02-17T04:32:00,axn,26.55
2024-02-17T04:33:00,axn,26.13
2024-02-17T04:34:00,axn,25.56
2024-02-17T04:35:00,axn,25.62
2024-02-17T04:36:00,axn,25.37
2024-02-17T04:37:00,axn,25.31
2024-02-17T04:38:00,axn,25.82
2024-02-17T04:39:00,axn,25.01
2024-02-17T04:40:00,axn,24.88
2024-02-17T04:41:00,axn,24.79
2024-02-17T04:42:00,axn,24.77
2024-02-17T04:43:00,axn,24.74
2024-02-17T04:44:00,axn,24.94
2024-02-17T04:45:00,axn,24.95
2024-02-17T04:46:00,axn,24.75
2024-02-17T04:47:00,axn,24.79
2024-02-17T04:48:00,axn,25.45
2024-02-17T04:49:00,axn,24.85
2024-02-17T04:50:00,axn,24.91
2024-02-17T04:51:00,axn,25.11
2024-02-17T04:52:00,axn,25.26
2024-02-17T04:53:00,axn,25.05
2024-02-17T04:54:00,axn,25.03
2024-02-17T04:55:00,axn,25.01
2024-02-17T04:56:00,axn,25.25
2024-02-17T04:57:00,axn,25.51
2024-02-17T04:58:00,axn,25.19
2024-02-17T04:59:00,axn,25.30
2024-02-17T05:00:00,axn,25.33
2024-02-17T05:01:00,axn,25.40
2024-02-17T05:02:00,axn,30.02
2024-02-17T05:03:00,axn,29.87
2024-02-17T05:04:00,axn,30.25
2024-02-17T05:05:00,axn,29.86
2024-02-17T05:06:00,axn,29.90
2024-02-17T05:07:00,axn,29.61
2024-02-17T05:08:00,axn,29.84
2024-02-17T05:09:00,axn,30.15
2024-02-17T05:10:00,axn,30.03
2024-02-17T05:11:00,axn,25.20
2024-02-17T05:12:00,axn,25.44
2024-02-17T05:13:00,axn,25.57
2024-02-17T05:14:00,axn,25.16
2024-02-17T05:15:00,axn,24.93
2024-02-17T05:16:00,axn,25.24
2024-02-17T05:17:00,axn,25.13
2024-02-17T05:18:00,axn,40.01
2024-02-17T05:19:00,axn,39.66
2024-02-17T05:20:00,axn,55.26
2024-02-17T05:21:00,axn,39.59
2024-02-17T05:22:00,axn,39.32
2024-02-17T05:23:00,axn,25.03
2024-02-17T05:24:00,axn,25.13
2024-02-17T05:25:00,axn,25.11
2024-02-17T05:26:00,axn,25.13
2024-02-17T05:27:00,axn,25.45
2024-02-17T05:28:00,axn,30.01
2024-02-17T05:29:00,axn,30.10
2024-02-17T05:30:00,axn,25.28
2024-02-17T05:31:00,axn,26.24
2024-02-17T05:32:00,axn,26.53
2024-02-17T05:33:00,axn,26.83
2024-02-17T05:34:00,axn,26.45
2024-02-17T05:35:00,axn,26.38
2024-02-17T05:36:00,axn,26.30
2024-02-17T05:37:00,axn,26.25
2024-02-17T05:38:00,axn,26.55
2024-02-17T05:39:00,axn,26.42
2024-02-17T05:40:00,axn,26.48
2024-02-17T05:41:00,axn,26.44
2024-02-17T05:42:00,axn,27.03
2024-02-17T05:43:00,axn,27.02
2024-02-17T05:44:00,axn,26.49
2024-02-17T05:45:00,axn,26.46
2024-02-17T05:46:00,axn,26.38
2024-02-17T05:47:00,axn,26.49
2024-02-17T05:48:00,axn,26.54
2024-02-17T05:49:00,axn,26.76
2024-02-17T05:50:00,axn,26.42
2024-02-17T05:51:00,axn,26.49
2024-02-17T05:52:00,axn,26.41
2024-02-17T05:53:00,axn,26.43
2024-02-17T05:54:00,axn,26.25
2024-02-17T05:55:00,axn,26.39
2024-02-17T05:56:00,axn,26.33
2024-02-17T05:57:00,axn,30.83
2024-02-17T05:58:00,axn,30.15
2024-02-17T05:59:00,axn,26.53
2024-02-17T06:00:00,axn,26.60
2024-02-17T06:01:00,axn,26.59
2024-02-17T06:02:00,axn,26.15
2024-02-17T06:03:00,axn,26.30
2024-02-17T06:04:00,axn,26.82
2024-02-17T06:05:00,axn,26.89
2024-02-17T06:06:00,axn,26.52
2024-02-17T06:07:00,axn,25.96
2024-02-17T06:08:00,axn,26.23
2024-02-17T06:09:00,axn,26.19
2024-02-17T06:10:00,axn,26.23
2024-02-17T06:11:00,axn,26.26
2024-02-17T06:12:00,axn,28.68
2024-02-17T06:13:00,axn,31.10
2024-02-17T06:14:00,axn,33.87
2024-02-17T06:15:00,axn,34.45
2024-02-17T06:16:00,axn,33.86
2024-02-17T06:17:00,axn,33.75
2024-02-17T06:18:00,axn,33.36
2024-02-17T06:19:00,axn,33.57
2024-02-17T06:20:00,axn,33.02
2024-02-17T06:21:00,axn,33.31
2024-02-17T06:22:00,axn,33.69
2024-02-17T06:23:00,axn,33.46
2024-02-17T06:24:00,axn,32.34
2024-02-17T06:25:00,axn,32.00
2024-02-17T06:26:00,axn,32.00
2024-02-17T06:27:00,axn,31.86
2024-02-17T06:28:00,axn,31.70
2024-02-17T06:29:00,axn,31.70
2024-02-17T06:30:00,axn,32.35
2024-02-17T06:31:00,axn,36.75
2024-02-17T06:32:00,axn,36.49
2024-02-17T06:33:00,axn,31.68
2024-02-17T06:34:00,axn,31.75
2024-02-17T06:35:00,axn,32.26
2024-02-17T06:36:00,axn,31.12
2024-02-17T06:37:00,axn,31.47
2024-02-17T06:38:00,axn,31.71
2024-02-17T06:39:00,axn,31.52
2024-02-17T06:40:00,axn,31.45
2024-02-17T06:41:00,axn,31.53
2024-02-17T06:42:00,axn,31.36
2024-02-17T06:43:00,axn,31.63
2024-02-17T06:44:00,axn,33.54
2024-02-17T06:45:00,axn,31.75
2024-02-17T06:46:00,axn,31.93
2024-02-17T06:47:00,axn,32.18
2024-02-17T06:48:00,axn,31.77
2024-02-17T06:49:00,axn,31.49
2024-02-17T06:50:00,axn,31.27
2024-02-17T06:51:00,axn,31.46
2024-02-17T06:52:00,axn,31.59
2024-02-17T06:53:00,axn,31.65
2024-02-17T06:54:00,axn,31.49
2024-02-17T06:55:00,axn,31.28
2024-02-17T06:56:00,axn,31.21
2024-02-17T06:57:00,axn,31.16
2024-02-17T06:58:00,axn,31.41
2024-02-17T06:59:00,axn,31.24
2024-02-17T07:00:00,axn,31.01
2024-02-17T07:01:00,axn,31.43
2024-02-17T07:02:00,axn,33.24
2024-02-17T07:03:00,axn,34.32
2024-02-17T07:04:00,axn,34.27
2024-02-17T07:05:00,axn,34.33
2024-02-17T07:06:00,axn,38.88
2024-02-17T07:07:00,axn,39.92
2024-02-17T07:08:00,axn,36.67
2024-02-17T07:09:00,axn,33.78
2024-02-17T07:10:00,axn,33.93
2024-02-17T07:11:00,axn,34.28
2024-02-17T07:12:00,axn,33.93
2024-02-17T07:13:00,axn,33.78
2024-02-17T07:14:00,axn,33.71
2024-02-17T07:15:00,axn,34.16
2024-02-17T07:16:00,axn,34.28
2024-02-17T07:17:00,axn,34.36
2024-02-17T07:18:00,axn,36.19
2024-02-17T07:19:00,axn,35.07
2024-02-17T07:20:00,axn,36.42
2024-02-17T07:21:00,axn,36.34
2024-02-17T07:22:00,axn,35.84
2024-02-17T07:23:00,axn,37.16
2024-02-17T07:24:00,axn,36.32
2024-02-17T07:25:00,axn,37.39
2024-02-17T07:26:00,axn,36.94
2024-02-17T07:27:00,axn,37.97
2024-02-17T07:28:00,axn,38.27
2024-02-17T07:29:00,axn,38.20
2024-02-17T07:30:00,axn,38.32
2024-02-17T07:31:00,axn,38.46
2024-02-17T07:32:00,axn,35.82
2024-02-17T07:33:00,axn,37.14
2024-02-17T07:34:00,axn,38.47
2024-02-17T07:35:00,axn,35.97
2024-02-17T07:36:00,axn,36.95
2024-02-17T07:37:00,axn,35.84
2024-02-17T07:38:00,axn,35.88
2024-02-17T07:39:00,axn,37.94
2024-02-17T07:40:00,axn,43.96
2024-02-17T07:41:00,axn,40.77
2024-02-17T07:42:00,axn,37.31
2024-02-17T07:43:00,axn,38.21
2024-02-17T07:44:00,axn,36.93
2024-02-17T07:45:00,axn,37.24
2024-02-17T07:46:00,axn,36.69
2024-02-17T07:47:00,axn,36.67
2024-02-17T07:48:00,axn,36.71
2024-02-17T07:49:00,axn,36.49
2024-02-17T07:50:00,axn,36.38
2024-02-17T07:51:00,axn,36.51
2024-02-17T07:52:00,axn,39.11
2024-02-17T07:53:00,axn,36.60
2024-02-17T07:54:00,axn,37.85
2024-02-17T07:55:00,axn,37.55
2024-02-17T07:56:00,axn,38.53
2024-02-17T07:57:00,axn,48.70
2024-02-17T07:58:00,axn,47.66
2024-02-17T07:59:00,axn,47.34
2024-02-17T08:00:00,axn,47.97
2024-02-17T08:01:00,axn,47.65
2024-02-17T08:02:00,axn,40.39
2024-02-17T08:03:00,axn,38.41
2024-02-17T08:04:00,axn,38.62
2024-02-17T08:05:00,axn,37.37
2024-02-17T08:06:00,axn,40.32
2024-02-17T08:07:00,axn,38.27
2024-02-17T08:08:00,axn,38.03
2024-02-17T08:09:00,axn,38.32
2024-02-17T08:10:00,axn,37.62
2024-02-17T08:11:00,axn,37.25
2024-02-17T08:12:00,axn,38.54
2024-02-17T08:13:00,axn,42.16
2024-02-17T08:14:00,axn,41.94
2024-02-17T08:15:00,axn,37.99
2024-02-17T08:16:00,axn,37.30
2024-02-17T08:17:00,axn,37.72
2024-02-17T08:18:00,axn,37.15
2024-02-17T08:19:00,axn,37.04
2024-02-17T08:20:00,axn,37.05
2024-02-17T08:21:00,axn,40.09
2024-02-17T08:22:00,axn,37.58
2024-02-17T08:23:00,axn,39.14
2024-02-17T08:24:00,axn,37.99
2024-02-17T08:25:00,axn,38.00
2024-02-17T08:26:00,axn,39.40
2024-02-17T08:27:00,axn,38.15
2024-02-17T08:28:00,axn,39.29
2024-02-17T08:29:00,axn,39.41
2024-02-17T08:30:00,axn,38.82
2024-02-17T08:31:00,axn,37.01
2024-02-17T08:32:00,axn,37.84
2024-02-17T08:33:00,axn,37.04
2024-02-17T08:34:00,axn,38.88
2024-02-17T08:35:00,axn,37.16
2024-02-17T08:36:00,axn,36.77
2024-02-17T08:37:00,axn,38.78
2024-02-17T08:38:00,axn,37.55
2024-02-17T08:39:00,axn,36.37
2024-02-17T08:40:00,axn,38.23
2024-02-17T08:41:00,axn,37.62
2024-02-17T08:42:00,axn,36.76
2024-02-17T08:43:00,axn,36.32
2024-02-17T08:44:00,axn,38.07
2024-02-17T08:45:00,axn,36.53
2024-02-17T08:46:00,axn,41.15
2024-02-17T08:47:00,axn,41.92
2024-02-17T08:48:00,axn,36.94
2024-02-17T08:49:00,axn,36.81
2024-02-17T08:50:00,axn,36.87
2024-02-17T08:51:00,axn,37.06
2024-02-17T08:52:00,axn,41.29
2024-02-17T08:53:00,axn,37.41
2024-02-17T08:54:00,axn,37.50
2024-02-17T08:55:00,axn,39.48
2024-02-17T08:56:00,axn,38.61
2024-02-17T08:57:00,axn,37.97
2024-02-17T08:58:00,axn,38.66
2024-02-17T08:59:00,axn,37.49
2024-02-17T09:00:00,axn,38.45
2024-02-17T09:01:00,axn,37.86
2024-02-17T09:02:00,axn,37.56
2024-02-17T09:03:00,axn,36.99
2024-02-17T09:04:00,axn,38.53
2024-02-17T09:05:00,axn,38.14
2024-02-17T09:06:00,axn,38.42
2024-02-17T09:07:00,axn,36.17
2024-02-17T09:08:00,axn,36.67
2024-02-17T09:09:00,axn,38.55
2024-02-17T09:10:00,axn,38.09
2024-02-17T09:11:00,axn,39.72
2024-02-17T09:12:00,axn,39.15
2024-02-17T09:13:00,axn,39.69
2024-02-17T09:14:00,axn,37.16
2024-02-17T09:15:00,axn,37.07
2024-02-17T09:16:00,axn,42.85
2024-02-17T09:17:00,axn,37.43
2024-02-17T09:18:00,axn,37.06
2024-02-17T09:19:00,axn,37.77
2024-02-17T09:20:00,axn,37.10
2024-02-17T09:21:00,axn,37.06
2024-02-17T09:22:00,axn,37.99
2024-02-17T09:23:00,axn,37.45
2024-02-17T09:24:00,axn,37.47
2024-02-17T09:25:00,axn,38.11
2024-02-17T09:26:00,axn,37.39
2024-02-17T09:27:00,axn,37.85
2024-02-17T09:28:00,axn,40.02
2024-02-17T09:29:00,axn,37.77
2024-02-17T09:30:00,axn,38.57
2024-02-17T09:31:00,axn,39.67
2024-02-17T09:32:00,axn,40.00
2024-02-17T09:33:00,axn,38.84
2024-02-17T09:34:00,axn,40.26
2024-02-17T09:35:00,axn,38.41
2024-02-17T09:36:00,axn,39.32
2024-02-17T09:37:00,axn,40.38
2024-02-17T09:38:00,axn,40.41
2024-02-17T09:39:00,axn,40.34
2024-02-17T09:40:00,axn,40.75
2024-02-17T09:41:00,axn,43.98
2024-02-17T09:42:00,axn,39.83
2024-02-17T09:43:00,axn,41.25
2024-02-17T09:44:00,axn,39.58
2024-02-17T09:45:00,axn,40.72
2024-02-17T09:46:00,axn,38.76
2024-02-17T09:47:00,axn,38.45
2024-02-17T09:48:00,axn,38.54
2024-02-17T09:49:00,axn,44.70
2024-02-17T09:50:00,axn,39.34
2024-02-17T09:51:00,axn,56.98
2024-02-17T09:52:00,axn,41.32
2024-02-17T09:53:00,axn,39.73
2024-02-17T09:54:00,axn,40.93
2024-02-17T09:55:00,axn,40.01
2024-02-17T09:56:00,axn,39.05
2024-02-17T09:57:00,axn,38.45
2024-02-17T09:58:00,axn,39.14
2024-02-17T09:59:00,axn,38.99
2024-02-17T10:00:00,axn,39.15
2024-02-17T10:01:00,axn,39.38
2024-02-17T10:02:00,axn,40.09
2024-02-17T10:03:00,axn,40.23
2024-02-17T10:04:00,axn,39.37
2024-02-17T10:05:00,axn,40.30
2024-02-17T10:06:00,axn,42.76
2024-02-17T10:07:00,axn,42.24
2024-02-17T10:08:00,axn,40.70
2024-02-17T10:09:00,axn,39.06
2024-02-17T10:10:00,axn,41.79
2024-02-17T10:11:00,axn,41.61
2024-02-17T10:12:00,axn,41.80
2024-02-17T10:13:00,axn,41.65
2024-02-17T10:14:00,axn,39.23
2024-02-17T10:15:00,axn,39.23
2024-02-17T10:16:00,axn,41.29
2024-02-17T10:17:00,axn,40.52
2024-02-17T10:18:00,axn,42.69
2024-02-17T10:19:00,axn,41.32
2024-02-17T10:20:00,axn,41.50
2024-02-17T10:21:00,axn,46.23
2024-02-17T10:22:00,axn,46.23
2024-02-17T10:23:00,axn,41.67
2024-02-17T10:24:00,axn,42.24
2024-02-17T10:25:00,axn,41.56
2024-02-17T10:26:00,axn,41.55
2024-02-17T10:27:00,axn,40.61
2024-02-17T10:28:00,axn,39.29
2024-02-17T10:29:00,axn,39.46
2024-02-17T10:30:00,axn,39.70
2024-02-17T10:31:00,axn,41.10
2024-02-17T10:32:00,axn,40.34
2024-02-17T10:33:00,axn,39.62
2024-02-17T10:34:00,axn,39.61
2024-02-17T10:35:00,axn,39.38
2024-02-17T10:36:00,axn,39.73
2024-02-17T10:37:00,axn,45.05
2024-02-17T10:38:00,axn,45.22
2024-02-17T10:39:00,axn,45.63
2024-02-17T10:40:00,axn,42.11
2024-02-17T10:41:00,axn,41.42
2024-02-17T10:42:00,axn,42.42
2024-02-17T10:43:00,axn,42.13
2024-02-17T10:44:00,axn,42.22
2024-02-17T10:45:00,axn,42.05
2024-02-17T10:46:00,axn,39.41
2024-02-17T10:47:00,axn,41.92
2024-02-17T10:48:00,axn,56.44
2024-02-17T10:49:00,axn,56.26
2024-02-17T10:50:00,axn,56.55
2024-02-17T10:51:00,axn,55.91
2024-02-17T10:52:00,axn,56.96
2024-02-17T10:53:00,axn,57.40
2024-02-17T10:54:00,axn,59.85
2024-02-17T10:55:00,axn,47.08
2024-02-17T10:56:00,axn,42.26
2024-02-17T10:57:00,axn,43.00
2024-02-17T10:58:00,axn,42.19
2024-02-17T10:59:00,axn,40.71
2024-02-17T11:00:00,axn,41.60
2024-02-17T11:01:00,axn,42.18
2024-02-17T11:02:00,axn,42.96
2024-02-17T11:03:00,axn,42.54
2024-02-17T11:04:00,axn,42.22
2024-02-17T11:05:00,axn,42.05
2024-02-17T11:06:00,axn,42.15
2024-02-17T11:07:00,axn,41.92
2024-02-17T11:08:00,axn,41.83
2024-02-17T11:09:00,axn,42.24
2024-02-17T11:10:00,axn,41.93
2024-02-17T11:11:00,axn,41.89
2024-02-17T11:12:00,axn,41.79
2024-02-17T11:13:00,axn,43.92
2024-02-17T11:14:00,axn,41.89
2024-02-17T11:15:00,axn,43.71
2024-02-17T11:16:00,axn,44.59
2024-02-17T11:17:00,axn,43.16
2024-02-17T11:18:00,axn,41.77
2024-02-17T11:19:00,axn,45.00
2024-02-17T11:20:00,axn,44.36
2024-02-17T11:21:00,axn,43.32
2024-02-17T11:22:00,axn,43.83
2024-02-17T11:23:00,axn,44.50
2024-02-17T11:24:00,axn,47.54
2024-02-17T11:25:00,axn,42.54
2024-02-17T11:26:00,axn,42.71
2024-02-17T11:27:00,axn,43.87
2024-02-17T11:28:00,axn,44.39
2024-02-17T11:29:00,axn,42.78
2024-02-17T11:30:00,axn,41.13
2024-02-17T11:31:00,axn,42.48
2024-02-17T11:32:00,axn,43.76
2024-02-17T11:33:00,axn,42.58
2024-02-17T11:34:00,axn,41.47
2024-02-17T11:35:00,axn,42.66
2024-02-17T11:36:00,axn,41.18
2024-02-17T11:37:00,axn,41.94
2024-02-17T11:38:00,axn,41.50
2024-02-17T11:39:00,axn,41.98
2024-02-17T11:40:00,axn,41.41
2024-02-17T11:41:00,axn,42.02
2024-02-17T11:42:00,axn,41.70
2024-02-17T11:43:00,axn,41.82
2024-02-17T11:44:00,axn,41.50
2024-02-17T11:45:00,axn,42.38
2024-02-17T11:46:00,axn,41.53
2024-02-17T11:47:00,axn,41.66
2024-02-17T11:48:00,axn,43.94
2024-02-17T11:49:00,axn,44.08
2024-02-17T11:50:00,axn,42.17
2024-02-17T11:51:00,axn,46.07
2024-02-17T11:52:00,axn,43.26
2024-02-17T11:53:00,axn,44.14
2024-02-17T11:54:00,axn,42.73
2024-02-17T11:55:00,axn,44.87
2024-02-17T11:56:00,axn,44.69
2024-02-17T11:57:00,axn,42.69
2024-02-17T11:58:00,axn,42.53
2024-02-17T11:59:00,axn,41.88
2024-02-17T12:00:00,axn,43.47
2024-02-17T12:01:00,axn,44.08
2024-02-17T12:02:00,axn,41.62
2024-02-17T12:03:00,axn,43.29
2024-02-17T12:04:00,axn,44.45
2024-02-17T12:05:00,axn,44.20
2024-02-17T12:06:00,axn,42.18
2024-02-17T12:07:00,axn,42.49
2024-02-17T12:08:00,axn,41.33
2024-02-17T12:09:00,axn,41.56
2024-02-17T12:10:00,axn,41.64
2024-02-17T12:11:00,axn,41.80
2024-02-17T12:12:00,axn,40.93
2024-02-17T12:13:00,axn,41.67
2024-02-17T12:14:00,axn,41.13
2024-02-17T12:15:00,axn,41.02
2024-02-17T12:16:00,axn,41.10
2024-02-17T12:17:00,axn,41.19
2024-02-17T12:18:00,axn,42.13
2024-02-17T12:19:00,axn,43.60
2024-02-17T12:20:00,axn,43.56
2024-02-17T12:21:00,axn,41.38
2024-02-17T12:22:00,axn,42.58
2024-02-17T12:23:00,axn,44.51
2024-02-17T12:24:00,axn,44.30
2024-02-17T12:25:00,axn,47.98
2024-02-17T12:26:00,axn,43.91
2024-02-17T12:27:00,axn,43.48
2024-02-17T12:28:00,axn,43.84
2024-02-17T12:29:00,axn,43.46
2024-02-17T12:30:00,axn,42.96
2024-02-17T12:31:00,axn,41.63
2024-02-17T12:32:00,axn,43.06
2024-02-17T12:33:00,axn,44.03
2024-02-17T12:34:00,axn,43.67
2024-02-17T12:35:00,axn,43.83
2024-02-17T12:36:00,axn,43.96
2024-02-17T12:37:00,axn,44.07
2024-02-17T12:38:00,axn,42.79
2024-02-17T12:39:00,axn,43.14
2024-02-17T12:40:00,axn,43.15
2024-02-17T12:41:00,axn,42.97
2024-02-17T12:42:00,axn,42.93
2024-02-17T12:43:00,axn,42.30
2024-02-17T12:44:00,axn,42.02
2024-02-17T12:45:00,axn,42.62
2024-02-17T12:46:00,axn,41.89
2024-02-17T12:47:00,axn,41.33
2024-02-17T12:48:00,axn,42.28
2024-02-17T12:49:00,axn,41.07
2024-02-17T12:50:00,axn,43.15
2024-02-17T12:51:00,axn,42.71
2024-02-17T12:52:00,axn,41.46
2024-02-17T12:53:00,axn,43.67
2024-02-17T12:54:00,axn,43.77
2024-02-17T12:55:00,axn,43.71
2024-02-17T12:56:00,axn,41.39
2024-02-17T12:57:00,axn,42.96
2024-02-17T12:58:00,axn,43.34
2024-02-17T12:59:00,axn,43.31
2024-02-17T13:00:00,axn,53.23
2024-02-17T13:01:00,axn,57.27
2024-02-17T13:02:00,axn,54.99
2024-02-17T13:03:00,axn,50.62
2024-02-17T13:04:00,axn,52.17
2024-02-17T13:05:00,axn,52.75
2024-02-17T13:06:00,axn,42.71
2024-02-17T13:07:00,axn,41.70
2024-02-17T13:08:00,axn,41.65
2024-02-17T13:09:00,axn,46.33
2024-02-17T13:10:00,axn,43.13
2024-02-17T13:11:00,axn,41.27
2024-02-17T13:12:00,axn,41.27
2024-02-17T13:13:00,axn,40.42
2024-02-17T13:14:00,axn,40.90
2024-02-17T13:15:00,axn,40.53
2024-02-17T13:16:00,axn,44.26
2024-02-17T13:17:00,axn,40.55
2024-02-17T13:18:00,axn,40.55